EW1613 Weather Reports


Display with metric or nautical units.
time (UTC)temp
F
wind
direction
speed
MPH
gust
MPH
rain 1hr
in
rain 24hr
in
rain mn
in
humidity
%
barometer
mb
20260507101517 71 243 1.0 9.0 0.00 0.16 0.00 60 1013.8
20260507100946 71 252 5.0 10.0 0.00 0.16 0.00 59 1013.9
20260507100437 70 181 3.0 10.0 0.00 0.16 0.00 60 1013.9
20260507095933 71 243 3.0 8.0 0.00 0.16 0.00 60 1013.9
20260507095449 70 207 1.0 9.0 0.00 0.16 0.00 60 1013.9
20260507094944 70 263 4.0 9.0 0.00 0.16 0.00 59 1013.9
20260507094519 70 227 3.0 9.0 0.00 0.16 0.00 60 1013.8
20260507093950 70 254 4.0 9.0 0.00 0.16 0.00 60 1013.8
20260507093446 70 125 1.0 5.0 0.00 0.16 0.00 61 1013.7
20260507092936 69 203 1.0 6.0 0.00 0.16 0.00 63 1013.7
20260507092453 69 213 2.0 9.0 0.00 0.16 0.00 62 1013.7
20260507091944 69 233 3.0 9.0 0.00 0.16 0.00 63 1013.7
20260507091439 69 263 2.0 10.0 0.00 0.16 0.00 62 1013.7
20260507090954 70 180 4.0 10.0 0.00 0.16 0.00 61 1013.8
20260507090444 70 225 1.0 6.0 0.00 0.16 0.00 62 1013.8
20260507090002 70 211 4.0 6.0 0.00 0.16 0.00 63 1013.8
20260507085457 69 219 0.0 8.0 0.00 0.16 0.00 64 1013.7
20260507085013 69 220 3.0 8.0 0.00 0.16 0.00 63 1013.8
20260507084449 69 234 1.0 5.0 0.00 0.16 0.00 64 1013.7
20260507083937 69 239 1.0 5.0 0.00 0.16 0.00 67 1013.7
20260507083449 69 240 0.0 3.0 0.00 0.16 0.00 68 1013.7
20260507082939 68 327 0.0 4.0 0.00 0.16 0.00 71 1013.7
20260507082436 67 278 1.0 5.0 0.00 0.16 0.00 70 1013.7
20260507081945 68 308 3.0 5.0 0.00 0.16 0.00 69 1013.7
20260507081441 68 283 1.0 5.0 0.00 0.16 0.00 70 1013.7
20260507080959 68 240 1.0 4.0 0.00 0.16 0.00 71 1013.7
20260507080447 67 113 0.0 3.0 0.00 0.16 0.00 74 1013.7
20260507075938 66 115 0.0 3.0 0.00 0.16 0.00 75 1013.7
20260507075434 66 180 1.0 2.0 0.00 0.16 0.00 77 1013.7
20260507075011 65 180 0.0 2.0 0.00 0.16 0.00 78 1013.7
20260507074447 65 219 0.0 0.0 0.00 0.16 0.00 79 1013.7
20260507073934 65 295 0.0 0.0 0.00 0.16 0.00 78 1013.7
20260507073451 65 295 0.0 0.0 0.00 0.16 0.00 79 1013.7
20260507072946 65 309 0.0 0.0 0.00 0.16 0.00 79 1013.6
20260507072436 65 311 0.0 0.0 0.00 0.16 0.00 79 1013.6
20260507071952 65 311 0.0 0.0 0.00 0.16 0.00 80 1013.6
20260507071508 64 5 0.0 0.0 0.00 0.16 0.00 81 1013.6
20260507070935 64 11 0.0 0.0 0.00 0.16 0.00 81 1013.5
20260507070449 64 14 0.0 0.0 0.00 0.16 0.00 82 1013.4
20260507065945 63 28 0.0 0.0 0.00 0.16 0.00 83 1013.4
20260507065452 63 28 0.0 0.0 0.00 0.16 0.00 84 1013.3
20260507064948 62 28 0.0 0.0 0.00 0.16 0.00 84 1013.4
20260507064438 61 28 0.0 0.0 0.00 0.16 0.00 85 1013.4
20260507063955 61 27 0.0 0.0 0.00 0.16 0.00 86 1013.3
20260507063445 60 304 0.0 0.0 0.00 0.16 0.00 87 1013.2
20260507063002 60 319 0.0 1.0 0.00 0.16 0.00 87 1013.2
20260507062451 59 323 0.0 2.0 0.00 0.16 0.00 87 1013.3
20260507061948 59 323 1.0 4.0 0.00 0.16 0.00 88 1013.3
20260507061504 59 321 0.0 4.0 0.00 0.16 0.00 88 1013.2
20260507060933 58 325 2.0 4.0 0.00 0.16 0.00 90 1013.3
20260507060450 58 321 1.0 3.0 0.00 0.16 0.00 92 1013.3
20260507055941 58 318 1.0 3.0 0.00 0.16 0.00 93 1013.2
20260507055437 57 309 0.0 4.0 0.00 0.16 0.00 93 1013.2
20260507054953 57 302 0.0 4.0 0.00 0.16 0.00 93 1013.1
20260507054503 57 305 2.0 4.0 0.00 0.16 0.00 94 1013.1
20260507053939 57 306 1.0 3.0 0.00 0.16 0.00 94 1013.1
20260507053455 57 241 0.0 2.0 0.00 0.16 0.00 94 1013.0
20260507052944 56 240 0.0 1.0 0.00 0.16 0.00 95 1013.0
20260507052441 56 237 0.0 1.0 0.00 0.16 0.00 95 1012.9
20260507052000 56 323 0.0 1.0 0.00 0.16 0.00 95 1012.9
20260507051456 56 323 0.0 1.0 0.00 0.16 0.00 95 1012.8
20260507050943 55 323 0.0 0.0 0.00 0.16 0.00 95 1012.8
20260507050438 55 323 0.0 0.0 0.00 0.16 0.00 94 1012.7
20260507050009 55 323 0.0 0.0 0.00 0.16 0.00 95 1012.7
20260507045438 55 323 0.0 0.0 0.00 0.24 0.00 94 1012.6
20260507045001 55 323 0.0 0.0 0.00 0.24 0.00 94 1012.6
20260507044450 55 323 0.0 0.0 0.00 0.24 0.00 94 1012.6
20260507043938 55 323 0.0 1.0 0.00 0.24 0.00 94 1012.6
20260507043454 55 323 0.0 1.0 0.00 0.24 0.00 94 1012.5
20260507042949 55 323 0.0 0.0 0.00 0.24 0.00 94 1012.4
20260507042438 55 323 0.0 0.0 0.00 0.24 0.00 94 1012.4
20260507041934 55 323 0.0 0.0 0.00 0.24 0.00 94 1012.3
20260507041451 55 323 0.0 0.0 0.00 0.24 0.00 94 1012.3
20260507041006 55 323 0.0 0.0 0.00 0.24 0.00 94 1012.2
20260507040500 55 323 0.0 0.0 0.00 0.24 0.00 94 1012.2
20260507040016 55 323 0.0 0.0 0.00 0.24 0.00 94 1012.2
20260507035443 55 323 0.0 0.0 0.00 0.28 0.00 94 1012.1
20260507034959 55 323 0.0 0.0 0.00 0.28 0.00 94 1012.1
20260507034449 55 323 0.0 0.0 0.00 0.28 0.00 94 1012.0
20260507033946 55 323 0.0 0.0 0.00 0.28 0.00 94 1012.0
20260507033437 55 323 0.0 0.0 0.00 0.28 0.00 94 1012.0
20260507032935 55 323 0.0 0.0 0.00 0.28 0.00 94 1012.0
20260507032444 55 323 0.0 0.0 0.00 0.28 0.00 94 1012.0
20260507031940 55 323 0.0 0.0 0.00 0.28 0.00 94 1011.9
20260507031438 55 323 0.0 0.0 0.00 0.28 0.00 94 1011.9
20260507031011 55 323 0.0 0.0 0.00 0.28 0.00 94 1011.9
20260507030459 55 323 0.0 0.0 0.00 0.28 0.00 94 1011.9
20260507025935 55 323 0.0 0.0 0.00 0.28 0.00 94 1011.9
20260507025451 56 323 0.0 0.0 0.00 0.28 0.00 94 1011.9
20260507024941 56 323 0.0 1.0 0.00 0.28 0.00 94 1011.9
20260507024437 56 323 0.0 1.0 0.00 0.28 0.00 94 1011.9
20260507023955 56 323 0.0 0.0 0.00 0.28 0.00 94 1011.9
20260507023450 56 323 0.0 0.0 0.00 0.28 0.00 94 1011.9
20260507022939 56 323 0.0 0.0 0.00 0.28 0.00 94 1012.0
20260507022456 55 323 0.0 0.0 0.00 0.28 0.00 93 1011.9
20260507021947 56 323 0.0 0.0 0.00 0.28 0.00 93 1012.0
20260507021443 56 323 0.0 0.0 0.00 0.28 0.00 93 1012.0
20260507020934 56 323 0.0 0.0 0.00 0.28 0.00 93 1012.0
20260507020510 56 323 0.0 0.0 0.00 0.28 0.00 93 1011.9
20260507015947 56 323 0.0 0.0 0.00 0.28 0.00 93 1012.0
20260507015437 56 323 0.0 0.0 0.00 0.28 0.00 93 1011.8
20260507014934 56 323 0.0 0.0 0.00 0.28 0.00 93 1011.8
20260507014442 56 323 0.0 0.0 0.00 0.28 0.00 93 1011.8
20260507013940 56 323 0.0 0.0 0.00 0.28 0.00 93 1011.8
20260507013455 56 323 0.0 0.0 0.00 0.28 0.00 93 1011.8
20260507012945 56 323 0.0 0.0 0.00 0.28 0.00 93 1011.7
20260507012502 56 323 0.0 0.0 0.00 0.28 0.00 93 1011.8
20260507011952 56 323 0.0 0.0 0.00 0.28 0.00 93 1011.7
20260507011440 56 323 0.0 0.0 0.00 0.28 0.00 93 1011.7
20260507010938 56 323 0.0 0.0 0.00 0.28 0.00 93 1011.8
20260507010456 56 323 0.0 0.0 0.00 0.28 0.00 93 1011.7
20260507010007 56 323 0.0 0.0 0.00 0.28 0.00 93 1011.7
20260507005441 57 323 0.0 0.0 0.00 0.28 0.00 93 1011.7
20260507004958 57 323 0.0 0.0 0.00 0.28 0.00 93 1011.7
20260507004447 57 323 0.0 2.0 0.00 0.28 0.00 93 1011.7
20260507003944 57 323 1.0 2.0 0.00 0.28 0.00 93 1011.7
20260507003435 57 322 0.0 2.0 0.00 0.28 0.00 93 1011.7
20260507002952 57 321 0.0 2.0 0.00 0.28 0.00 93 1011.7
20260507002447 57 320 1.0 2.0 0.00 0.28 0.00 93 1011.8
20260507001939 57 319 1.0 2.0 0.00 0.28 0.00 93 1011.8
20260507001455 57 319 0.0 2.0 0.00 0.28 0.00 93 1011.8
20260507000948 57 319 0.0 2.0 0.00 0.28 0.00 93 1011.8
20260507000437 57 319 1.0 2.0 0.00 0.28 0.00 93 1011.8
20260506235933 57 321 0.0 1.0 0.00 0.28 0.00 93 1011.7
20260506235450 57 321 0.0 0.0 0.00 0.28 0.00 93 1011.7
20260506234938 57 321 0.0 0.0 0.00 0.28 0.00 93 1011.8
20260506234435 57 321 0.0 0.0 0.00 0.28 0.00 93 1011.8
20260506234010 57 321 0.0 0.0 0.00 0.28 0.00 93 1011.7
20260506233455 57 321 0.0 0.0 0.00 0.28 0.00 93 1011.7
20260506232949 57 321 0.0 0.0 0.00 0.28 0.00 93 1011.7
20260506232443 57 321 0.0 0.0 0.00 0.28 0.00 93 1011.8
20260506231940 57 321 0.0 0.0 0.00 0.28 0.00 93 1011.8
20260506231450 58 321 0.0 2.0 0.00 0.28 0.00 93 1011.8
20260506231005 58 321 0.0 2.0 0.00 0.28 0.00 93 1011.8
20260506230501 58 321 0.0 3.0 0.00 0.28 0.00 92 1011.8
20260506225956 58 321 1.0 3.0 0.00 0.28 0.00 93 1011.7
20260506225512 58 319 2.0 3.0 0.00 0.28 0.00 93 1011.7
20260506224940 58 319 1.0 3.0 0.00 0.28 0.00 93 1011.7
20260506224456 58 315 1.0 2.0 0.00 0.28 0.00 93 1011.7
20260506223952 59 315 0.0 2.0 0.00 0.28 0.00 93 1011.7
20260506223443 59 315 1.0 2.0 0.00 0.28 0.00 93 1011.8
20260506222959 59 315 0.0 0.0 0.00 0.28 0.00 93 1011.8
20260506222452 59 315 0.0 0.0 0.00 0.28 0.00 93 1011.8
20260506221941 59 315 0.0 0.0 0.00 0.28 0.00 93 1011.7
20260506221458 59 315 0.0 0.0 0.00 0.28 0.00 93 1011.7
20260506220947 59 315 0.0 0.0 0.00 0.28 0.00 93 1011.7
20260506220438 59 315 0.0 0.0 0.00 0.28 0.00 93 1011.7
20260506215955 59 315 0.0 2.0 0.00 0.28 0.06 93 1011.7
20260506215449 59 315 0.0 2.0 0.00 0.28 0.06 93 1011.6
20260506214959 59 315 1.0 2.0 0.00 0.28 0.06 93 1011.7
20260506214456 59 315 0.0 2.0 0.00 0.28 0.06 93 1011.7
20260506213948 59 315 0.0 2.0 0.00 0.28 0.06 92 1011.7
20260506213444 59 315 1.0 3.0 0.00 0.28 0.06 92 1011.6
20260506212934 59 339 1.0 3.0 0.00 0.28 0.06 92 1011.6
20260506212451 59 355 0.0 1.0 0.00 0.28 0.06 92 1011.6
20260506211947 59 355 0.0 1.0 0.00 0.28 0.06 92 1011.6
20260506211436 59 355 0.0 0.0 0.00 0.28 0.06 92 1011.6
20260506210950 59 355 0.0 0.0 0.00 0.28 0.06 92 1011.6
20260506210441 59 355 0.0 0.0 0.00 0.28 0.06 92 1011.5
20260506205939 59 355 0.0 0.0 0.00 0.28 0.06 92 1011.6
20260506205516 60 355 0.0 0.0 0.00 0.28 0.06 92 1011.4
20260506204944 60 355 0.0 0.0 0.00 0.28 0.06 92 1011.4
20260506204501 60 355 0.0 0.0 0.00 0.28 0.06 92 1011.4
20260506203947 60 355 0.0 0.0 0.00 0.28 0.06 92 1011.3
20260506203438 60 355 0.0 0.0 0.00 0.28 0.06 92 1011.4
20260506202952 60 355 0.0 1.0 0.00 0.28 0.06 92 1011.4
20260506202506 60 355 0.0 2.0 0.00 0.28 0.06 92 1011.3
20260506201935 60 355 1.0 2.0 0.00 0.28 0.06 92 1011.3
20260506201447 60 355 0.0 1.0 0.00 0.28 0.06 91 1011.3
20260506200940 60 355 0.0 3.0 0.00 0.28 0.06 91 1011.3
20260506200453 60 355 0.0 3.0 0.00 0.28 0.06 91 1011.2
20260506195941 61 355 0.0 4.0 0.00 0.28 0.06 91 1011.1
20260506195458 61 339 0.0 3.0 0.00 0.28 0.06 91 1011.0
20260506194947 61 339 1.0 3.0 0.00 0.28 0.06 90 1011.0
20260506194458 61 26 1.0 3.0 0.00 0.28 0.06 90 1010.9
20260506193947 61 63 1.0 2.0 0.00 0.28 0.06 90 1010.9
20260506193438 61 65 0.0 2.0 0.00 0.28 0.06 89 1010.7
20260506192952 61 65 0.0 0.0 0.00 0.28 0.06 89 1010.8
20260506192447 61 65 0.0 2.0 0.00 0.28 0.06 89 1010.8
20260506191938 62 65 0.0 2.0 0.00 0.28 0.06 89 1010.7
20260506191433 62 65 0.0 1.0 0.00 0.28 0.06 89 1010.7
20260506190949 62 65 0.0 2.0 0.00 0.28 0.06 89 1010.7
20260506190440 62 65 1.0 3.0 0.00 0.28 0.06 88 1010.5
20260506185936 62 65 1.0 3.0 0.00 0.28 0.06 88 1010.5
20260506185451 62 59 1.0 3.0 0.00 0.28 0.06 88 1010.5
20260506185002 62 59 2.0 3.0 0.00 0.28 0.06 88 1010.5
20260506184435 62 28 0.0 2.0 0.00 0.28 0.06 88 1010.5
20260506183946 62 27 0.0 3.0 0.00 0.28 0.06 88 1010.4
20260506183443 62 26 1.0 4.0 0.00 0.28 0.06 88 1010.3
20260506182934 63 24 1.0 3.0 0.00 0.28 0.06 87 1010.1
20260506182450 63 38 0.0 3.0 0.00 0.28 0.06 87 1010.0
20260506181939 63 38 0.0 3.0 0.00 0.28 0.06 87 1010.0
20260506181436 63 43 1.0 4.0 0.00 0.28 0.06 87 1009.9
20260506180951 63 41 0.0 4.0 0.00 0.28 0.06 87 1010.0
20260506180438 63 45 0.0 5.0 0.00 0.28 0.06 87 1010.0
20260506175936 63 40 1.0 5.0 0.00 0.28 0.06 87 1010.0
20260506175450 63 55 1.0 5.0 0.00 0.28 0.06 87 1010.0
20260506174938 63 55 3.0 5.0 0.00 0.28 0.06 87 1010.0
20260506174435 64 78 2.0 5.0 0.00 0.28 0.06 87 1009.9
20260506173951 64 53 2.0 6.0 0.00 0.28 0.06 87 1009.8
20260506173440 64 69 3.0 6.0 0.00 0.28 0.06 86 1009.9
20260506172935 64 20 3.0 5.0 0.00 0.28 0.06 87 1010.1
20260506172451 64 44 2.0 5.0 0.00 0.28 0.06 87 1010.0
20260506171942 64 51 2.0 5.0 0.00 0.28 0.06 87 1009.7
20260506171437 64 60 2.0 5.0 0.00 0.28 0.06 87 1009.6
20260506170946 64 61 2.0 5.0 0.00 0.28 0.06 87 1009.7
20260506170443 64 69 2.0 8.0 0.00 0.28 0.06 87 1009.6
20260506165934 64 62 5.0 8.0 0.00 0.28 0.06 87 1009.6
20260506165450 64 61 3.0 5.0 0.00 0.28 0.06 87 1009.5
20260506164943 64 76 2.0 8.0 0.00 0.28 0.06 87 1009.7
20260506164434 64 68 4.0 9.0 0.00 0.28 0.06 86 1009.8
20260506164010 64 61 4.0 8.0 0.00 0.28 0.06 86 1009.7
20260506163444 64 71 3.0 6.0 0.00 0.28 0.06 86 1009.8
20260506163017 64 76 3.0 6.0 0.00 0.28 0.06 86 1009.7
20260506162446 64 86 3.0 6.0 0.00 0.28 0.06 86 1009.7
20260506161941 64 82 3.0 8.0 0.00 0.28 0.06 85 1009.6
20260506161458 64 86 5.0 8.0 0.00 0.28 0.06 85 1009.7
20260506160952 65 86 3.0 5.0 0.00 0.28 0.06 86 1009.7
20260506160443 64 75 2.0 5.0 0.00 0.28 0.06 86 1009.8
20260506155959 64 67 2.0 5.0 0.00 0.28 0.06 86 1009.8
20260506155448 64 70 2.0 7.0 0.00 0.28 0.06 86 1009.9
20260506154943 64 87 4.0 7.0 0.00 0.28 0.06 85 1009.8
20260506154432 64 76 2.0 8.0 0.00 0.28 0.06 86 1009.9
20260506153949 64 53 3.0 8.0 0.00 0.28 0.06 86 1009.8
20260506153440 64 71 2.0 6.0 0.00 0.28 0.06 86 1009.8
20260506152957 65 49 3.0 6.0 0.00 0.28 0.06 86 1009.7
20260506152452 65 63 3.0 6.0 0.00 0.28 0.06 87 1009.7
20260506151949 65 59 3.0 6.0 0.00 0.28 0.06 86 1009.7
20260506151438 65 67 2.0 7.0 0.00 0.28 0.06 86 1009.9
20260506150954 65 74 2.0 7.0 0.00 0.28 0.06 86 1009.9
20260506150445 65 39 1.0 5.0 0.00 0.28 0.06 87 1009.8
20260506145944 64 44 2.0 9.0 0.00 0.28 0.06 87 1009.8
20260506145434 64 41 3.0 9.0 0.00 0.28 0.06 87 1009.9
20260506145011 64 77 3.0 7.0 0.00 0.28 0.06 88 1009.8
20260506144446 64 85 3.0 5.0 0.00 0.28 0.06 88 1009.9
20260506143935 64 45 3.0 4.0 0.00 0.28 0.06 89 1009.9
20260506143434 64 74 2.0 6.0 0.00 0.28 0.06 89 1010.0
20260506142945 64 74 3.0 6.0 0.00 0.28 0.06 89 1010.0
20260506142443 64 51 2.0 6.0 0.04 0.28 0.06 90 1010.1
20260506141933 63 31 1.0 6.0 0.04 0.28 0.06 91 1010.1
20260506141445 63 62 4.0 6.0 0.04 0.28 0.06 90 1010.1
20260506140934 63 69 3.0 6.0 0.04 0.28 0.06 91 1010.1
20260506140451 63 69 3.0 6.0 0.04 0.28 0.06 91 1010.1
20260506135949 63 74 3.0 7.0 0.04 0.28 0.06 91 1010.1
20260506135456 63 87 3.0 6.0 0.04 0.28 0.06 91 1010.1
20260506134951 63 88 2.0 4.0 0.04 0.28 0.06 91 1010.0
20260506134447 62 82 2.0 6.0 0.04 0.28 0.06 91 1010.0
20260506133936 62 76 3.0 7.0 0.04 0.28 0.06 91 1010.1
20260506133433 62 47 2.0 9.0 0.04 0.28 0.06 90 1010.1
20260506132952 62 90 4.0 9.0 0.04 0.28 0.06 90 1010.1
20260506132442 62 68 4.0 8.0 0.04 0.24 0.05 90 1010.1
20260506132000 62 24 1.0 4.0 0.08 0.24 0.05 90 1010.6
20260506131454 62 57 0.0 3.0 0.08 0.24 0.05 90 1010.7
20260506130944 62 57 1.0 3.0 0.12 0.24 0.05 90 1010.7
20260506130500 62 52 1.0 5.0 0.12 0.24 0.05 90 1010.7
20260506125955 62 57 2.0 5.0 0.12 0.24 0.05 90 1010.7
20260506125445 62 63 2.0 4.0 0.12 0.24 0.05 90 1010.7
20260506124943 62 74 2.0 3.0 0.12 0.24 0.05 90 1010.7
20260506124434 62 73 1.0 3.0 0.12 0.24 0.05 89 1010.6
20260506123948 63 84 0.0 3.0 0.12 0.24 0.05 89 1010.7
20260506123438 63 89 1.0 3.0 0.12 0.24 0.05 88 1010.7
20260506122932 63 143 1.0 4.0 0.12 0.24 0.05 88 1010.7
20260506122447 63 119 2.0 6.0 0.08 0.20 0.04 88 1010.8
20260506121957 63 82 2.0 6.0 0.04 0.16 0.03 87 1010.6
20260506121516 63 68 2.0 5.0 0.04 0.16 0.03 86 1010.6
20260506120945 63 51 3.0 5.0 0.00 0.12 0.02 86 1010.6
20260506120441 63 72 2.0 4.0 0.00 0.12 0.02 85 1010.8
20260506115957 63 58 1.0 4.0 0.00 0.12 0.02 86 1010.7
20260506115446 63 79 1.0 5.0 0.00 0.12 0.02 85 1010.8
20260506114944 63 73 3.0 5.0 0.00 0.12 0.02 85 1010.8
20260506114452 63 99 2.0 4.0 0.00 0.12 0.02 86 1010.8
20260506113945 63 105 1.0 6.0 0.00 0.12 0.02 86 1010.9
20260506113434 63 109 3.0 7.0 0.00 0.12 0.02 86 1011.0
20260506112950 63 109 2.0 7.0 0.00 0.12 0.02 86 1011.1
20260506112440 63 100 2.0 6.0 0.00 0.12 0.02 86 1011.1
20260506111937 63 86 2.0 4.0 0.00 0.12 0.02 86 1011.1
20260506111454 63 91 1.0 4.0 0.00 0.12 0.02 86 1011.1
20260506110941 62 72 1.0 4.0 0.00 0.12 0.02 86 1011.2
20260506110438 62 71 2.0 4.0 0.00 0.12 0.02 87 1011.2
20260506105955 62 82 1.0 4.0 0.00 0.12 0.02 87 1011.3
20260506105444 62 76 1.0 4.0 0.00 0.16 0.02 88 1011.3
20260506105002 62 90 2.0 4.0 0.00 0.16 0.02 88 1011.4
20260506104456 62 105 1.0 4.0 0.00 0.16 0.02 88 1011.5
20260506103944 62 113 1.0 4.0 0.00 0.16 0.02 88 1011.5
20260506103459 62 92 1.0 6.0 0.00 0.16 0.02 88 1011.5
20260506102954 62 87 2.0 6.0 0.00 0.16 0.02 88 1011.6
20260506102506 62 79 3.0 6.0 0.00 0.16 0.02 87 1011.4
20260506101932 62 69 3.0 8.0 0.00 0.16 0.02 87 1011.5